When you browse on this site, cookies collect data to enhance your experience and personalize the content and advertising you see.
Visit our Privacy Policy to learn more. By continuing to use the site, you agree to this use of cookies and data.
  • In Czech Republic
  • List of Countries
  • For 7 days
  • Water Temperature
  • Weather Map
  • Weather Widgets
  • user-avatar
    Login

    Hourly Weather Ainazi

    Today, 29 February, Saturday

    Time Temperature Precipitation Wind Pressure Humidity
    00:00 -4°C° 0 mm 4 mps 751 mmHg 74%
    01:00 -4°C° 0 mm 4 mps 752 mmHg 74%
    02:00 -4°C° 0 mm 4 mps 752 mmHg 73%
    03:00 -4°C° 0 mm 4 mps 752 mmHg 74%
    04:00 -4°C° 0 mm 3 mps 752 mmHg 75%
    05:00 -4°C° 0 mm 3 mps 752 mmHg 76%
    06:00 -4°C° 0 mm 4 mps 752 mmHg 76%
    07:00 -3°C° 0 mm 4 mps 752 mmHg 77%
    08:00 -4°C° 0 mm 5 mps 752 mmHg 78%
    09:00 -2°C° 0 mm 5 mps 751 mmHg 76%
    10:00 -2°C° 0 mm 6 mps 751 mmHg 75%
    11:00 -1°C° 0 mm 6 mps 751 mmHg 74%
    12:00 -1°C° 0 mm 6 mps 751 mmHg 73%
    13:00 0°C° 0 mm 5 mps 751 mmHg 73%
    14:00 0°C° 0 mm 5 mps 751 mmHg 72%
    15:00 0°C° 0 mm 5 mps 750 mmHg 74%
    16:00 -1°C° 0 mm 6 mps 750 mmHg 75%
    17:00 -1°C° 0 mm 6 mps 750 mmHg 76%
    18:00 -1°C° 0 mm 6 mps 750 mmHg 79%
    19:00 -1°C° 0 mm 7 mps 750 mmHg 83%
    20:00 -2°C° 0 mm 7 mps 750 mmHg 86%
    21:00 -2°C° 0 mm 7 mps 749 mmHg 87%
    22:00 -2°C° 0 mm 7 mps 749 mmHg 88%
    23:00 -3°C° 0 mm 6 mps 748 mmHg 89%

    Tomorrow, 1 March, Sunday

    Time Temperature Precipitation Wind Pressure Humidity
    00:00 -2°C° 0 mm 7 mps 748 mmHg 87%
    01:00 -2°C° 0 mm 7 mps 747 mmHg 85%
    02:00 -2°C° 0 mm 7 mps 746 mmHg 83%
    03:00 -2°C° 0.4 mm 7 mps 746 mmHg 87%
    04:00 -2°C° 0.4 mm 7 mps 745 mmHg 92%
    05:00 -1°C° 0.4 mm 7 mps 744 mmHg 97%
    06:00 -1°C° 0.2 mm 8 mps 744 mmHg 95%
    07:00 -1°C° 0.2 mm 9 mps 743 mmHg 93%
    08:00 0°C° 0.2 mm 10 mps 743 mmHg 91%
    09:00 0°C° 0.2 mm 9 mps 743 mmHg 89%
    10:00 +1°C° 0.2 mm 9 mps 744 mmHg 86%
    11:00 +2°C° 0.2 mm 8 mps 744 mmHg 83%
    12:00 +2°C° 0 mm 8 mps 744 mmHg 81%
    13:00 +3°C° 0 mm 7 mps 745 mmHg 78%
    14:00 +4°C° 0 mm 6 mps 745 mmHg 76%
    15:00 +3°C° 0 mm 6 mps 745 mmHg 76%
    16:00 +3°C° 0 mm 6 mps 746 mmHg 77%
    17:00 +2°C° 0 mm 5 mps 746 mmHg 78%
    18:00 +2°C° 0 mm 6 mps 746 mmHg 79%
    19:00 +1°C° 0 mm 6 mps 746 mmHg 81%
    20:00 +1°C° 0 mm 6 mps 746 mmHg 82%
    21:00 +1°C° 0 mm 6 mps 746 mmHg 84%
    22:00 +1°C° 0 mm 6 mps 746 mmHg 86%
    23:00 +1°C° 0 mm 6 mps 746 mmHg 87%

    Day after tomorrow, 2 March, Monday

    Time Temperature Precipitation Wind Pressure Humidity
    00:00 +1°C° 0 mm 6 mps 746 mmHg 90%
    01:00 -1°C° 0 mm 6 mps 746 mmHg 92%
    02:00 -1°C° 0 mm 6 mps 746 mmHg 95%
    03:00 0°C° 0 mm 5 mps 746 mmHg 95%
    04:00 0°C° 0 mm 5 mps 746 mmHg 95%
    05:00 0°C° 0 mm 5 mps 746 mmHg 95%
    06:00 0°C° 0 mm 5 mps 746 mmHg 95%
    07:00 0°C° 0 mm 5 mps 747 mmHg 95%
    08:00 0°C° 0 mm 5 mps 747 mmHg 94%
    09:00 +1°C° 0 mm 5 mps 747 mmHg 88%
    10:00 +2°C° 0 mm 5 mps 747 mmHg 82%
    11:00 +5°C° 0 mm 5 mps 747 mmHg 75%
    12:00 +5°C° 0 mm 5 mps 748 mmHg 72%
    13:00 +6°C° 0 mm 5 mps 748 mmHg 69%
    14:00 +7°C° 0 mm 5 mps 748 mmHg 65%
    15:00 +6°C° 0 mm 4 mps 748 mmHg 70%
    16:00 +5°C° 0 mm 4 mps 748 mmHg 75%
    17:00 +5°C° 0 mm 3 mps 748 mmHg 80%
    18:00 +4°C° 0 mm 4 mps 748 mmHg 83%
    19:00 +4°C° 0 mm 4 mps 747 mmHg 85%
    20:00 +2°C° 0 mm 5 mps 747 mmHg 88%
    21:00 +2°C° 0 mm 5 mps 747 mmHg 88%
    22:00 +2°C° 0 mm 5 mps 747 mmHg 89%
    23:00 +2°C° 0 mm 5 mps 747 mmHg 89%

    3 March, Tuesday

    Time Temperature Precipitation Wind Pressure Humidity
    00:00 +3°C° 0.4 mm 4 mps 747 mmHg 91%
    01:00 +3°C° 0.4 mm 4 mps 746 mmHg 93%
    02:00 +3°C° 0.4 mm 4 mps 746 mmHg 95%
    03:00 +3°C° 0.8 mm 3 mps 746 mmHg 96%
    04:00 +3°C° 0.8 mm 3 mps 746 mmHg 97%
    05:00 +3°C° 0.8 mm 3 mps 746 mmHg 98%
    06:00 +4°C° 0 mm 2 mps 747 mmHg 98%
    07:00 +5°C° 0 mm 1 mps 747 mmHg 98%
    08:00 +5°C° 0 mm 1 mps 748 mmHg 98%
    09:00 +6°C° 0 mm 1 mps 748 mmHg 95%
    10:00 +6°C° 0 mm 1 mps 749 mmHg 93%
    11:00 +7°C° 0 mm 1 mps 749 mmHg 91%
    12:00 +7°C° 0 mm 1 mps 750 mmHg 89%
    13:00 +7°C° 0 mm 1 mps 750 mmHg 87%
    14:00 +6°C° 0 mm 2 mps 751 mmHg 86%
    15:00 +6°C° 0 mm 2 mps 751 mmHg 86%
    16:00 +6°C° 0 mm 2 mps 751 mmHg 87%
    17:00 +7°C° 0 mm 1 mps 751 mmHg 88%
    18:00 +6°C° 0 mm 2 mps 751 mmHg 89%
    19:00 +4°C° 0 mm 3 mps 751 mmHg 90%
    20:00 +4°C° 0 mm 3 mps 751 mmHg 91%
    21:00 +4°C° 0.3 mm 4 mps 751 mmHg 89%
    22:00 +4°C° 0.3 mm 4 mps 751 mmHg 88%
    23:00 +4°C° 0.3 mm 4 mps 751 mmHg 86%

    4 March, Wednesday

    Time Temperature Precipitation Wind Pressure Humidity
    00:00 +5°C° 0.5 mm 5 mps 751 mmHg 87%
    01:00 +5°C° 0.5 mm 5 mps 750 mmHg 88%
    02:00 +5°C° 0.5 mm 5 mps 750 mmHg 90%
    03:00 +5°C° 0.3 mm 5 mps 750 mmHg 90%
    04:00 +5°C° 0.3 mm 5 mps 750 mmHg 90%
    05:00 +5°C° 0.3 mm 5 mps 749 mmHg 91%
    06:00 +5°C° 0.4 mm 5 mps 749 mmHg 90%
    07:00 +5°C° 0.4 mm 5 mps 749 mmHg 89%
    08:00 +5°C° 0.4 mm 5 mps 749 mmHg 89%
    09:00 +5°C° 0.2 mm 5 mps 749 mmHg 88%
    10:00 +5°C° 0.2 mm 4 mps 749 mmHg 87%
    11:00 +6°C° 0.2 mm 4 mps 749 mmHg 87%
    12:00 +6°C° 0.1 mm 4 mps 749 mmHg 87%
    13:00 +6°C° 0.1 mm 4 mps 749 mmHg 88%
    14:00 +6°C° 0.1 mm 4 mps 749 mmHg 89%
    15:00 +6°C° 0 mm 4 mps 749 mmHg 90%
    16:00 +6°C° 0 mm 4 mps 749 mmHg 91%
    17:00 +7°C° 0 mm 3 mps 748 mmHg 92%
    18:00 +7°C° 0.1 mm 3 mps 748 mmHg 93%
    19:00 +7°C° 0.1 mm 3 mps 748 mmHg 94%
    20:00 +7°C° 0.1 mm 3 mps 748 mmHg 94%
    21:00 +7°C° 0.5 mm 3 mps 747 mmHg 95%
    22:00 +7°C° 0.5 mm 3 mps 747 mmHg 95%
    23:00 +7°C° 0.5 mm 3 mps 747 mmHg 95%

    5 March, Thursday

    Time Temperature Precipitation Wind Pressure Humidity
    00:00 +7°C° 0.5 mm 3 mps 746 mmHg 96%
    01:00 +7°C° 0.5 mm 3 mps 746 mmHg 96%
    02:00 +6°C° 0.5 mm 4 mps 745 mmHg 96%
    03:00 +7°C° 0.9 mm 3 mps 744 mmHg 96%
    04:00 +7°C° 0.9 mm 3 mps 743 mmHg 96%
    05:00 +7°C° 0.9 mm 3 mps 743 mmHg 96%
    06:00 +7°C° 1.1 mm 3 mps 742 mmHg 96%
    07:00 +7°C° 1.1 mm 3 mps 741 mmHg 95%
    08:00 +7°C° 1.1 mm 3 mps 741 mmHg 94%
    09:00 +7°C° 1 mm 4 mps 741 mmHg 92%
    10:00 +7°C° 1 mm 4 mps 740 mmHg 90%
    11:00 +7°C° 1 mm 5 mps 740 mmHg 87%
    12:00 +6°C° 0.8 mm 5 mps 740 mmHg 88%
    13:00 +6°C° 0.8 mm 5 mps 740 mmHg 88%
    14:00 +6°C° 0.8 mm 5 mps 740 mmHg 89%
    15:00 +4°C° 0.8 mm 6 mps 740 mmHg 91%
    16:00 +3°C° 0.8 mm 7 mps 740 mmHg 92%
    17:00 +1°C° 0.8 mm 9 mps 740 mmHg 94%
    18:00 +1°C° 0.4 mm 9 mps 741 mmHg 94%
    19:00 +1°C° 0.4 mm 9 mps 741 mmHg 94%
    20:00 0°C° 0.4 mm 9 mps 741 mmHg 94%
    21:00 0°C° 0.2 mm 9 mps 742 mmHg 94%
    22:00 0°C° 0.2 mm 9 mps 743 mmHg 95%
    23:00 0°C° 0.2 mm 9 mps 743 mmHg 95%
    Show more